Theta_e
326 320 323 320 307 305 300 302 308 307 308 314 314 313 313 315 313 309 318 324 328 334 338 344 345 347 347 347 346 345 345 344 343 341 340 338 337 336 337 336 338 338 339 338 337 335 333 331 331
321 317 320 316 303 298 298 306 304 308 312 312 312 311 312 312 313 313 318 323 330 335 339 342 341 344 345 344 343 342 342 342 341 340 338 337 336 335 334 333 332 334 333 332 332 331 328 329 330
317 317 314 306 303 298 299 305 307 310 313 311 311 308 312 313 310 315 321 326 332 336 339 340 340 342 341 340 339 339 339 339 339 338 336 336 334 332 332 331 331 332 331 331 329 327 330 330 329
315 315 312 301 300 305 305 307 309 309 310 312 313 309 309 311 311 312 322 329 331 334 336 336 339 340 339 338 338 337 336 336 335 334 334 334 331 329 330 329 329 329 328 327 331 330 329 330 332
315 311 302 298 300 306 308 310 310 309 309 310 311 310 310 308 310 316 322 327 330 333 333 335 337 338 338 338 337 335 334 334 332 331 331 330 328 327 327 326 326 326 325 330 328 329 329 329 331
306 306 298 296 301 306 310 312 311 310 311 311 308 310 312 308 309 316 322 326 328 329 331 333 331 334 335 335 334 333 332 330 329 328 327 326 325 325 324 324 324 325 329 328 328 328 327 331 331
305 301 300 300 301 304 308 314 310 311 311 311 313 308 312 307 310 317 322 326 328 330 329 330 331 330 329 331 332 331 330 328 327 326 325 323 323 321 322 322 323 327 330 329 329 328 327 331 331
307 305 299 301 299 301 310 311 314 313 312 313 312 308 309 309 310 317 322 324 326 327 329 328 329 330 330 329 325 326 327 326 324 323 321 319 319 318 319 321 323 329 328 329 328 328 330 330 329
305 298 295 298 301 303 309 308 315 313 312 308 308 309 307 306 311 315 318 320 321 323 326 327 327 328 328 328 322 321 322 321 318 316 314 315 319 318 319 319 323 327 327 326 326 325 322 323 322
298 294 299 306 306 305 308 310 312 308 310 310 308 307 304 308 311 312 314 315 317 319 321 323 324 324 324 322 323 323 320 318 315 311 309 310 312 313 313 315 320 325 325 323 321 319 316 316 321
299 294 302 305 306 307 307 308 311 307 307 311 310 314 306 306 310 311 313 316 317 319 320 320 322 322 322 319 320 318 312 308 308 307 303 306 306 305 307 312 318 321 317 319 318 317 317 316 317
296 301 302 304 306 305 304 309 307 307 310 315 314 315 310 306 308 310 312 314 316 317 319 319 320 319 319 318 317 315 312 307 305 306 304 305 305 306 305 307 310 310 310 311 313 312 312 312 312
294 299 302 302 303 304 306 305 306 308 310 313 309 306 308 308 309 311 313 314 315 315 317 318 318 318 317 316 316 314 313 309 307 304 302 302 305 305 303 304 305 305 307 307 309 307 309 307 308
299 296 297 299 299 301 300 301 304 306 310 310 307 307 309 308 309 310 310 311 312 314 315 317 316 317 316 314 314 312 311 309 305 303 301 302 304 304 302 303 302 302 302 303 307 307 304 303 306
296 292 294 297 296 296 300 295 297 304 306 305 307 307 309 309 309 308 310 309 311 312 314 314 315 315 314 312 312 311 307 303 301 301 302 302 302 302 300 301 300 300 299 302 303 305 301 303 299
289 291 289 297 298 296 296 292 302 305 303 302 304 307 308 309 308 310 309 309 309 311 311 313 311 312 311 310 308 304 302 301 300 299 300 299 299 300 300 300 300 299 299 301 305 304 301 297 299
288 285 288 291 298 295 293 292 301 302 301 301 302 305 307 307 308 308 308 307 307 308 309 309 310 309 309 308 304 302 301 300 300 300 298 297 297 299 299 300 299 296 296 299 302 302 300 294 292
284 284 285 285 291 291 291 291 299 298 295 298 300 303 303 303 304 306 306 306 306 306 307 307 308 308 307 304 302 301 300 300 300 299 297 295 296 297 298 299 297 295 295 297 298 297 297 292 291
287 285 284 288 290 288 289 291 296 300 297 296 297 298 298 299 302 303 304 304 304 304 304 304 304 305 304 301 300 299 298 299 300 300 298 298 295 297 297 298 299 297 297 298 297 296 292 288 289
285 283 284 287 288 287 288 288 293 295 295 296 296 297 299 300 301 301 300 302 302 303 303 303 303 303 302 303 302 301 300 301 301 299 297 296 297 296 296 296 295 295 296 297 296 294 291 288 288
284 283 284 283 287 285 283 283 287 292 292 293 295 296 298 298 298 300 298 299 301 301 302 301 302 302 301 302 301 300 301 299 297 296 296 294 296 296 295 295 295 293 296 294 295 295 294 291 288
279 286 285 283 282 277 284 276 284 289 290 290 292 294 295 296 296 295 295 296 298 300 302 301 301 301 300 301 300 299 297 297 298 297 297 295 294 294 295 295 296 295 294 294 295 296 295 293 289
281 286 284 283 281 280 280 276 282 288 286 289 291 293 295 294 292 291 289 290 292 296 299 300 300 300 299 299 299 299 299 300 299 299 294 293 293 293 295 296 296 295 296 297 295 294 294 294 294
286 283 282 282 281 273 279 279 280 284 287 289 291 292 292 289 288 289 291 292 293 295 297 298 298 297 298 297 298 298 299 299 297 297 296 296 296 295 296 296 296 295 296 297 296 296 295 294 294
282 279 273 271 271 272 281 278 282 286 288 288 290 289 287 288 289 290 291 291 293 293 295 296 296 295 296 297 297 297 299 298 297 296 296 295 294 294 295 297 297 297 296 296 296 295 295 294 294
280 279 274 268 270 274 277 274 281 288 289 289 287 286 285 286 288 288 289 290 291 292 293 294 294 295 295 295 296 297 298 296 296 296 296 295 294 294 296 296 296 294 293 293 294 294 294 294 294
279 276 283 276 275 274 277 280 285 288 285 283 284 284 284 283 284 284 285 288 290 291 291 292 292 293 293 294 294 294 295 294 294 294 295 293 293 292 293 295 295 295 293 292 292 293 292 292 293
280 283 275 276 270 269 275 278 280 285 284 283 282 284 282 282 283 283 283 284 286 288 290 290 291 291 291 292 292 292 292 293 293 292 291 292 291 291 292 294 294 294 292 290 291 291 292 291 291
278 278 278 278 278 272 272 277 283 282 284 285 283 283 283 283 282 283 283 284 285 286 288 288 288 289 289 290 290 290 290 291 291 290 291 291 291 291 291 292 293 293 291 289 289 289 290 289 289
277 279 279 275 274 277 276 278 280 280 281 283 282 282 283 283 282 282 282 283 284 285 285 286 288 288 289 289 289 289 289 289 289 289 290 290 289 290 290 291 291 292 291 289 289 288 288 287 286
Wind_Speed
6 4 3 5 8 8 18 15 15 9 5 6 3 7 11 12 9 3 4 6 9 13 7 10 9 15 17 14 13 13 13 12 12 9 8 6 6 4 4 4 5 5 5 4 4 5 3 1 1
5 4 4 3 10 14 15 17 16 14 3 4 3 4 6 9 1 2 6 11 13 13 10 13 11 13 15 17 16 14 12 11 10 9 7 6 5 4 3 2 1 3 2 1 1 1 1 0 3
5 4 5 5 12 18 14 9 13 14 9 7 5 3 3 3 3 1 3 12 14 11 10 11 11 15 14 13 14 13 11 9 10 9 7 6 5 3 3 3 3 3 3 3 2 3 3 3 4
5 5 3 9 17 20 25 7 5 7 5 6 5 7 4 3 2 3 11 14 14 12 11 11 11 15 15 13 11 11 11 10 8 7 7 7 5 4 4 4 4 4 4 4 6 4 2 1 5
5 2 8 9 19 24 11 15 10 9 3 5 7 9 5 3 5 7 12 12 15 12 10 11 10 13 14 14 14 13 12 10 8 6 6 6 5 4 4 3 4 4 5 7 5 4 1 2 2
6 3 8 14 20 23 18 18 13 13 14 8 6 8 7 4 9 9 11 13 12 11 9 9 8 9 10 12 13 14 13 11 10 8 6 5 5 3 3 4 5 5 8 6 5 3 2 2 6
13 9 18 20 17 22 19 15 14 19 19 20 7 10 3 8 9 10 12 13 12 13 11 9 10 9 9 9 9 9 11 11 9 9 9 6 4 3 3 4 6 8 7 8 7 5 2 8 8
9 10 20 18 14 28 18 9 10 16 19 3 7 10 12 5 13 11 12 11 12 11 12 10 9 10 10 9 9 9 9 10 9 5 8 11 9 7 6 6 7 6 8 9 9 9 10 11 11
2 11 13 19 19 20 3 12 12 3 11 6 9 6 4 6 12 12 12 12 11 11 12 11 11 10 10 10 10 11 10 11 14 10 7 6 4 3 2 7 9 6 9 10 9 11 11 11 10
8 11 23 17 20 18 16 18 17 8 12 13 9 8 5 11 13 15 15 15 16 16 14 12 12 12 11 8 11 9 8 6 7 7 4 3 4 4 5 7 9 3 10 11 9 7 8 2 3
10 24 18 19 17 15 17 15 13 13 19 16 14 16 13 12 14 15 17 17 17 15 13 15 13 12 12 9 7 5 4 5 5 7 6 4 3 2 2 3 3 6 4 4 2 4 2 4 4
18 23 23 23 18 8 14 17 15 19 21 17 14 8 12 15 16 18 18 18 15 16 16 16 15 13 12 8 8 7 6 6 5 6 7 4 2 3 3 4 3 3 2 2 1 1 4 6 7
23 20 18 18 21 18 15 20 21 22 17 15 7 8 11 14 17 16 17 13 14 16 17 17 16 14 12 11 8 8 7 7 7 6 7 5 5 4 2 3 2 4 2 1 0 2 4 6 7
10 13 22 21 19 12 15 22 23 18 19 20 14 15 16 16 18 16 14 16 16 15 17 17 18 16 14 12 12 9 8 8 8 8 8 9 6 6 3 2 2 5 2 2 2 3 4 6 6
17 18 15 22 13 16 8 22 31 21 20 22 23 20 20 19 17 19 18 17 16 15 16 18 18 17 16 15 12 9 8 9 8 8 11 11 9 8 5 4 1 5 1 0 2 3 5 6 6
7 10 21 20 23 11 15 29 19 19 24 24 25 23 21 22 23 21 17 17 16 16 18 17 15 18 17 15 12 9 9 9 9 9 9 10 9 8 6 4 4 5 3 4 5 5 5 6 5
12 19 23 19 14 11 16 27 19 9 13 21 21 21 20 22 23 18 16 16 17 17 16 17 18 18 18 15 12 12 12 10 8 8 8 9 7 6 5 5 5 6 4 4 5 5 5 6 6
25 23 17 19 7 9 11 25 23 9 9 16 17 17 18 21 23 17 17 16 15 15 16 16 15 17 17 12 11 9 9 9 9 8 8 10 8 7 5 4 6 7 5 5 6 6 6 5 6
20 17 23 22 6 10 17 25 29 22 20 19 18 16 17 18 18 12 12 11 13 15 16 17 18 18 15 13 13 12 12 10 9 9 12 13 9 9 8 6 10 10 9 9 10 9 11 5 5
20 20 24 22 3 9 11 21 25 21 22 22 22 21 23 21 20 14 13 13 14 15 17 17 18 19 17 13 12 9 11 9 9 8 11 10 13 10 9 7 8 9 8 9 12 11 7 3 4
22 23 27 25 13 5 4 16 25 22 21 21 24 24 23 22 22 18 14 14 14 15 17 18 19 20 19 17 12 8 10 8 9 10 10 8 12 10 8 9 7 8 9 9 11 11 10 8 6
21 22 22 18 14 14 6 15 25 22 20 17 20 20 21 23 17 14 14 14 15 15 14 17 18 19 18 19 16 17 13 11 10 11 11 9 10 10 9 8 8 10 8 10 11 10 10 8 8
18 10 18 17 15 17 14 9 25 13 21 23 19 19 18 12 11 11 9 8 9 10 13 14 16 17 18 18 17 14 14 10 8 9 13 10 11 10 12 12 12 12 9 11 12 11 11 8 7
16 10 9 3 10 11 27 17 25 18 27 23 17 14 11 8 6 4 1 2 4 7 11 13 15 16 17 17 18 17 17 13 11 12 11 11 11 12 15 14 14 11 11 12 11 12 12 10 7
6 9 5 6 8 12 4 14 25 5 4 7 14 6 4 4 4 4 4 4 5 8 10 11 14 15 15 17 17 17 16 15 15 14 11 13 10 11 15 16 15 12 11 10 11 11 10 10 9
15 15 6 8 7 8 7 13 19 11 12 9 3 6 6 6 5 5 4 4 4 5 8 9 11 12 13 14 15 13 14 9 10 12 9 9 10 11 13 14 13 12 11 8 9 9 9 10 10
12 12 15 5 2 5 8 15 18 19 10 3 7 9 8 7 7 7 7 6 4 4 5 7 9 9 11 12 12 12 12 12 11 11 10 8 9 9 12 13 13 13 12 10 9 8 10 9 9
7 2 6 6 7 9 11 12 13 5 5 5 8 9 7 6 6 7 7 8 6 5 2 4 6 8 9 10 10 10 11 12 10 9 10 10 9 10 11 13 13 12 11 9 9 7 9 10 8
6 5 6 3 7 5 6 5 7 9 9 8 9 9 6 6 6 6 7 6 6 7 5 1 4 5 6 8 8 9 9 10 9 9 10 10 9 10 11 12 12 12 12 10 9 8 10 10 8
4 12 6 5 4 8 7 10 5 8 9 4 10 9 7 6 6 6 7 7 8 8 7 5 2 4 6 7 8 8 8 9 9 9 9 9 10 9 10 10 11 12 12 11 11 11 10 11 9
Wind_Direction
179 191 220 225 228 239 243 233 246 218 214 210 175 212 216 236 220 269 128 156 174 161 180 163 144 167 162 154 154 150 151 148 131 131 134 111 93 86 103 97 98 108 112 126 143 89 58 38 275
179 152 202 237 241 230 240 232 229 230 201 147 188 221 227 234 240 149 174 177 176 158 176 158 131 125 136 135 131 127 126 127 133 131 136 137 146 146 152 133 173 196 94 223 53 16 305 243 220
176 223 226 224 236 236 249 197 243 234 233 215 220 258 283 228 173 195 126 161 166 164 165 136 141 137 133 130 131 131 128 132 136 134 138 140 134 151 170 177 169 167 176 165 188 175 197 179 219
181 184 237 240 227 235 246 222 251 211 195 217 238 239 215 283 166 152 154 161 169 161 158 144 144 144 143 142 137 133 131 137 137 131 141 138 136 182 182 170 172 175 178 192 171 139 162 259 255
207 224 235 231 240 246 239 254 234 229 255 216 203 246 248 185 153 147 162 166 172 161 160 157 146 147 144 150 149 143 138 138 129 141 139 137 147 183 189 197 200 199 199 182 150 119 147 252 177
202 248 234 236 237 242 250 249 239 239 254 228 219 247 259 110 171 161 168 166 179 164 160 155 143 143 150 155 156 151 146 147 146 148 151 158 164 189 211 210 219 211 195 156 134 152 212 165 100
229 220 239 243 250 250 242 249 240 245 250 245 248 233 232 193 177 160 169 169 182 181 168 165 160 148 140 145 148 150 146 145 147 151 147 139 149 183 218 227 228 215 160 141 139 122 186 139 106
225 239 247 241 243 252 244 238 257 249 252 273 215 233 233 118 158 161 168 176 184 189 191 176 175 176 169 149 132 136 133 137 133 122 109 92 83 40 29 325 245 195 146 134 122 90 71 95 89
249 237 233 226 232 238 234 244 230 267 249 218 196 255 70 123 153 164 173 184 189 194 196 190 185 182 177 171 145 126 123 116 112 102 93 109 127 85 2 348 298 165 135 134 116 95 69 71 75
203 230 237 233 244 255 251 240 249 225 221 232 228 218 162 157 175 182 188 193 197 197 195 194 192 189 178 170 168 166 150 145 127 111 69 62 86 72 50 8 7 84 110 103 97 92 81 179 149
211 237 236 242 246 252 251 240 238 238 251 250 234 233 192 189 195 202 206 206 203 198 194 198 194 190 184 176 175 169 149 130 122 113 91 70 76 67 78 46 29 87 63 106 119 147 113 119 125
248 241 240 243 241 236 239 250 235 237 249 265 250 263 192 203 206 209 212 209 200 201 200 196 194 189 188 182 187 172 165 152 144 139 131 125 87 51 52 91 53 43 357 100 130 119 121 102 99
241 253 250 246 246 243 254 248 251 247 249 250 245 210 220 221 220 220 222 214 206 206 203 197 195 192 189 191 189 185 182 180 162 155 152 156 152 136 111 100 98 86 326 16 157 131 125 108 100
244 242 258 257 251 244 238 253 250 246 250 255 235 234 236 230 226 223 215 214 210 210 207 199 198 197 189 192 192 188 186 182 177 169 165 165 161 144 127 128 166 95 21 350 258 172 119 110 103
253 253 251 256 266 254 232 261 244 245 248 246 247 240 243 233 232 228 221 219 213 212 208 202 199 196 193 195 192 189 186 180 174 171 168 167 153 148 135 134 114 102 60 207 168 158 124 113 86
255 233 247 243 231 236 190 260 250 239 229 240 248 245 243 238 233 235 231 224 217 215 206 200 197 195 197 193 187 184 181 182 180 170 165 159 150 148 137 142 129 107 164 186 214 183 133 105 113
237 252 241 255 216 207 198 256 263 253 229 236 243 245 245 245 242 234 227 223 220 216 207 199 197 196 195 193 185 184 181 183 174 172 166 162 160 156 154 165 149 147 152 190 202 174 149 122 98
236 243 259 266 197 216 219 251 257 240 235 242 250 252 250 248 246 242 231 224 220 213 209 202 197 195 190 183 185 179 178 181 176 175 172 163 161 159 174 189 150 149 156 168 168 166 129 112 121
254 256 251 251 223 208 227 243 255 252 227 248 249 251 249 251 253 232 225 214 211 209 202 200 193 190 182 183 182 182 185 181 180 181 178 174 169 170 182 197 181 164 176 181 172 154 143 116 134
244 245 256 264 199 219 237 248 264 260 246 249 253 250 250 252 251 239 227 213 206 205 205 200 199 191 189 187 184 185 183 190 181 179 183 185 182 177 175 179 183 165 179 176 175 164 149 118 188
238 237 246 258 264 226 285 270 267 258 248 252 251 252 254 251 249 243 217 218 211 210 206 202 198 193 192 189 178 170 158 158 176 187 189 194 189 174 173 177 180 182 183 177 179 177 181 157 187
253 239 254 258 262 257 182 276 270 262 259 240 244 247 248 248 242 248 245 231 220 214 206 204 199 195 192 187 181 182 179 181 195 192 189 182 184 179 187 191 188 197 203 178 186 185 186 168 173
247 255 244 249 243 264 225 250 268 260 253 253 248 235 242 244 236 236 226 226 224 214 201 198 195 192 190 188 190 186 195 190 175 174 176 181 186 191 191 197 201 201 203 196 188 186 193 195 180
264 256 249 241 244 244 242 230 272 249 251 256 254 250 244 208 209 214 201 191 185 177 187 186 185 188 186 189 195 195 194 181 177 176 181 186 187 193 200 203 201 197 198 199 196 193 197 201 197
253 233 224 227 217 239 256 213 242 63 135 291 261 224 180 144 154 154 161 157 149 157 166 174 182 186 185 194 197 199 200 193 192 178 182 178 187 193 199 198 199 199 198 200 193 192 198 205 210
214 220 207 220 215 256 157 215 237 256 282 256 197 146 122 108 100 82 76 85 118 145 163 171 182 181 185 192 196 200 203 200 202 192 185 188 192 197 193 195 195 196 186 187 194 193 197 202 213
230 232 213 273 273 276 215 246 281 265 252 188 164 151 126 109 90 75 63 56 64 129 164 177 178 181 186 190 191 196 197 201 197 190 192 188 192 190 192 193 194 193 191 179 186 197 193 199 205
234 290 173 195 222 230 237 256 251 289 251 199 172 155 117 103 84 63 52 44 38 40 86 174 181 186 186 189 192 195 196 200 196 187 189 189 186 181 188 191 194 189 187 171 179 192 195 194 191
200 210 228 268 230 245 258 237 13 339 337 250 181 150 125 101 81 69 59 46 41 43 36 99 176 183 188 194 193 195 194 195 189 189 193 190 182 183 187 190 190 188 183 170 171 177 184 192 182
323 228 211 245 183 235 281 259 18 344 302 263 154 126 106 86 75 62 54 40 37 31 21 16 5 216 204 194 189 193 186 186 189 195 191 181 182 183 184 184 187 188 185 175 175 178 182 180 168